Regional Weather Roundup
Issued by NWS

Home | Current Version | Previous Version | Text Only | Print | Product List | Glossary On
Versions: 1 2 3 4 5 6 7 8 9 10 11 12 13 14 15 16 17 18 19 20 21 22 23 24 25 26 27
000
ASUS43 KDMX 221207
RWRIA

WEATHER ROUNDUP FOR IOWA
NATIONAL WEATHER SERVICE DES MOINES IA
700 AM CDT TUE APR 22 2014

NOTE: "FAIR" INDICATES FEW OR NO CLOUDS BELOW 12,000 FEET WITH NO
SIGNIFICANT WEATHER AND/OR OBSTRUCTIONS TO VISIBILITY.

* - THESE STATIONS ARE NOT NWS STATIONS...THUS NOT UNDER NWS
QUALITY CONTROL.  THEY ALSO DO NOT REPORT WEATHER SUCH
AS PRECIPITATION OR FOG.

IAZ001>003-012>014-020>022-031>034-043>046-221300-
   NORTHWEST IOWA

CITY           SKY/WX    TMP DP  RH WIND       PRES   REMARKS
CARROLL *      CLEAR     36  28  75 W8        30.16R WCI  29
CHEROKEE *     CLEAR     30  27  86 CALM      30.16S
DENISON *      CLEAR     34  30  86 CALM      30.15S
LE MARS *      CLEAR     30  27  86 CALM      30.17S FOG
ORANGE CITY *  CLEAR     34  27  75 CALM      30.16R
SHELDON *      CLEAR     28  23  80 CALM      30.16R HAZE
SIOUX CITY     CLEAR     32  28  85 CALM      30.16S
6HR MIN TEMP:  32; 6HR MAX TEMP:  50;

SPENCER        CLEAR     30  26  85 W6        30.16R WCI  24
6HR MIN TEMP:  27; 6HR MAX TEMP:  43;

STORM LAKE *   CLEAR     36  28  75 NW6       30.16R WCI  31
$$

IAZ055>058-069>071-079>083-090>094-221300-
   SOUTHWEST IOWA

CITY           SKY/WX    TMP DP  RH WIND       PRES   REMARKS
ATLANTIC *     MIX PCPN  39  32  75 NE5       30.15S
AUDUBON *      CLEAR     36  28  75 CALM      30.17R
CLARINDA *     CLEAR     39  32  75 N3        30.17R
COUNCIL BLFS * CLEAR     41  32  70 NE7       30.15R
CRESTON *      CLEAR     37  30  75 N7        30.14R WCI  32
HARLAN  *      CLEAR     37  32  81 N5        30.19R WCI  34
LAMONI         CLEAR     40  31  70 N7        30.12R
6HR MIN TEMP:  40; 6HR MAX TEMP:  53;

RED OAK *      CLEAR     36  32  87 CALM      30.17R
SHENANDOAH *   CLEAR     37  32  81 N3        30.17R
$$

IAZ047>049-059>061-072>074-084-221300-
   CENTRAL IOWA

CITY           SKY/WX    TMP DP  RH WIND       PRES   REMARKS
AMES           CLEAR     40  31  70 NW8       30.13R WCI  34
6HR MIN TEMP:  38; 6HR MAX TEMP:  49;

ANKENY *       CLEAR     41  32  70 N8        30.13R
CHARITON *     CLEAR     41  32  70 N8        30.11S
DES MOINES     CLEAR     44  31  60 N7        30.13R
6HR MIN TEMP:  43; 6HR MAX TEMP:  54;

GRINNELL*      CLEAR     36  32  87 NW5       30.11R WCI  32
KNOXVILLE *    CLEAR     43  32  65 N5        30.11S
MARSHALLTOWN   CLEAR     34  31  88 W5        30.11R WCI  30
6HR MIN TEMP:  34; 6HR MAX TEMP:  45;

NEWTON *       CLEAR     39  32  75 N10       30.12R WCI  32
PELLA *        CLEAR     41  34  75 N8        30.12R
PERRY *          N/A     37  30  75 NW6       30.15R WCI  33
$$

IAZ004>006-015-016-023>025-035-036-221300-
   NORTH CENTRAL IOWA

CITY           SKY/WX    TMP DP  RH WIND       PRES   REMARKS
ALGONA *       CLEAR     37  32  81 NW9       30.14R WCI  31
CLARION *      CLEAR     36  32  87 N6        30.12S WCI  31
ESTHERVILLE    CLEAR     33  29  85 NW8       30.14S WCI  26
6HR MIN TEMP:  32; 6HR MAX TEMP:  42;

FORT DODGE *   CLEAR     37  28  70 CALM      30.15R
MASON CITY     CLEAR     34  31  88 W9        30.13R WCI  27
6HR MIN TEMP:  32; 6HR MAX TEMP:  43;

FOREST CITY *  CLEAR     34  32  93 W3        30.12R
IOWA FALLS *     N/A     36  32  87 N6        30.12S WCI  31
$$

IAZ007>011-017>019-026>030-037>042-050>054-066-221300-
   NORTHEAST IOWA

CITY           SKY/WX    TMP DP  RH WIND       PRES   REMARKS
CEDAR RAPIDS   CLEAR     40  31  70 NW10      30.07R WCI  33
6HR MIN TEMP:  40; 6HR MAX TEMP:  49;

CHARLES CITY * CLEAR     36  32  87 W7        30.10R WCI  30
CLINTON *      CLEAR     39  34  81 N10       30.07R WCI  32
DECORAH *      CLEAR     37  30  75 N7        30.06S WCI  32
DUBUQUE        CLEAR     41  30  65 N14       30.03R
6HR MIN TEMP:  40; 6HR MAX TEMP:  51;

MONTICELLO *   CLEAR     39  32  75 N9        30.05S WCI  33
OELWEIN *      CLEAR    N/A N/A N/A NW9       30.09R
WATERLOO       CLEAR     38  32  79 NW6       30.09R WCI  33
6HR MIN TEMP:  36; 6HR MAX TEMP:  47;

$$

IAZ064-065-067-068-078-221300-
   EAST CENTRAL IOWA

CITY           SKY/WX    TMP DP  RH WIND       PRES   REMARKS
DAVENPORT      CLEAR     41  35  79 N14       30.04R
6HR MIN TEMP:  41; 6HR MAX TEMP:  50;

IOWA CITY      CLEAR     45  30  55 N13G22    30.09R
6HR MIN TEMP:  44; 6HR MAX TEMP:  52;

MT. PLEASANT * CLEAR     43  32  65 NW13      30.07R
MUSCATINE *    CLEAR     43  34  70 N8G16     30.07R
QUAD CITIES    CLEAR     45  34  65 NW14      30.04R
6HR MIN TEMP:  45; 6HR MAX TEMP:  53;

$$

IAZ062-063-075>077-085>089-095>099-221300-
   SOUTHEAST IOWA

CITY           SKY/WX    TMP DP  RH WIND       PRES   REMARKS
BURLINGTON     CLEAR     44  37  76 N10       30.04R
6HR MIN TEMP:  44; 6HR MAX TEMP:  54;

FAIRFIELD *    CLEAR     43  32  65 N17       30.08R
FORT MADISON * CLEAR     45  37  76 N15       30.06R
KEOKUK *       CLEAR     45  37  76 NW8       30.06R
OSKALOOSA *      N/A     40  33  75 N8        30.10S WCI  35
CENTERVILLE *  CLEAR     43  32  65 N10       30.11R
OTTUMWA        CLEAR     39  32  76 N10       30.10R WCI  32
6HR MIN TEMP:  38; 6HR MAX TEMP:  49;

WASHINGTON *   CLEAR     43  32  65 N14       30.07R
$$

ABBREVIATIONS USED IN REMARKS
   TC - TEMPERATURES IN CELSIUS
  WCI - WIND CHILL INDEX
   HX - HEAT INDEX
  VSB - VISIBILITY
$$




USA.gov is the U.S. government's official web portal to all federal, state and local government web resources and services.